This demonstration page uses our WeatherBlox Daily Observations layout. Learn more.

Left ArrowRight Arrow

Hourly Observations for November 12, 2015

Temp ( °F °C ) Dew Point ( °F °C ) Humidity (%) Winds ( mph kmh ) Pressure ( in mb ) Visibility ( mi km ) Precip ( " mm )
12:53 am 00:53 Clear 55 12.8 52 11.1 90 90 SSW 7 11 29.98 1015 10 16 0.00 0.00
1:53 am 01:53 Clear 54 12.2 52 11.1 93 93 SSW 6 9 29.97 1015 10 16 0.00 0.00
2:53 am 02:53 Clear 54 12.2 51 10.6 90 90 SSW 8 13 29.96 1014 10 16 0.00 0.00
3:12 am 03:12 Mostly Cloudy 55 13 52 11 88 88 SW 8 13 29.97 1015 10 16 0.00 0.00
3:27 am 03:27 Cloudy 55 12.8 53 11.7 93 93 SW 8 13 29.97 1015 10 16 0.00 0.00
3:53 am 03:53 Cloudy with Mist and Fog 57 13.9 55 12.8 93 93 SW 10 17 29.94 1014 4 6 0.00 0.00
4:53 am 04:53 Cloudy with Mist and Fog 58 14.4 56 13.3 93 93 SSW 9 15 29.95 1014 6 10 0.00 0.00
5:53 am 05:53 Cloudy 60 15.6 57 13.9 90 90 SW 9 15 29.94 1014 8 13 0.00 0.00
6:53 am 06:53 Cloudy 60 15.6 58 14.4 93 93 SSW 7 11 29.96 1015 8 13 0.00 0.00
7:50 am 07:50 Cloudy with Mist and Fog 61 16 59 15 94 94 SW 6 9 29.97 1015 2 3 0.00 0.00
7:53 am 07:53 Cloudy with Mist and Fog 61 16.1 59 15 93 93 SW 8 13 29.97 1015 2 3 0.00 0.00
8:53 am 08:53 Cloudy with Mist and Fog 62 16.7 60 15.6 93 93 SW 7 11 29.99 1016 2 3 0.00 0.00
9:17 am 09:17 Cloudy with Mist and Fog 63 17 61 16 94 94 WSW 6 9 30.00 1016 3 4 0.00 0.00
9:24 am 09:24 Cloudy with Mist and Fog 63 17 61 16 94 94 SW 6 9 30.00 1016 4 6 0.00 0.00
9:53 am 09:53 Cloudy with Light Rain 63 17.2 59 15 87 87 WNW 13 20 30.01 1016 10 16 0.00 0.03
9:56 am 09:56 Cloudy 63 17 59 15 88 88 W 8 13 30.03 1017 10 16 0.00 0.00
10:21 am 10:21 Cloudy 64 17.8 58 14.4 81 81 WSW 6 9 30.03 1017 10 16 0.00 0.03
10:53 am 10:53 Cloudy 64 17.8 57 13.9 78 78 W 7 11 30.01 1016 10 16 0.00 0.03
11:53 am 11:53 Cloudy 65 18.3 54 12.2 68 68 W 7 11 30.00 1016 10 16 0.00 0.00
12:53 pm 12:53 Cloudy 65 18.3 52 11.1 63 63 W 15 24 29.98 1015 10 16 0.00 0.00
1:53 pm 13:53 Sunny 69 20.6 52 11.1 55 55 W 8 13 29.96 1015 10 16 0.00 0.00
2:53 pm 14:53 Sunny 71 21.7 51 10.6 49 49 WSW 9 15 29.95 1014 10 16 0.00 0.00
3:53 pm 15:53 Sunny 72 22.2 49 9.4 44 44 W 8 13 29.94 1014 10 16 0.00 0.00
4:53 pm 16:53 Sunny 70 21.1 47 8.3 44 44 WNW 12 19 29.95 1014 10 16 0.00 0.00
5:53 pm 17:53 Clear 66 18.9 48 8.9 52 52 WNW 7 11 29.97 1015 10 16 0.00 0.00
6:53 pm 18:53 Clear 64 17.8 47 8.3 54 54 W 3 6 29.99 1016 10 16 0.00 0.00
7:53 pm 19:53 Clear 61 16.1 47 8.3 60 60 WNW 5 7 30.01 1016 10 16 0.00 0.00
8:53 pm 20:53 Clear 59 15 41 5 51 51 W 6 9 30.02 1017 10 16 0.00 0.00
9:53 pm 21:53 Clear 57 13.9 41 5 55 55 WSW 3 6 30.04 1017 10 16 0.00 0.00
10:53 pm 22:53 Clear 56 13.3 39 3.9 53 53 W 6 9 30.05 1018 10 16 0.00 0.00
11:53 pm 23:53 Clear 55 12.8 38 3.3 53 53 W 5 7 30.05 1018 10 16 0.00 0.00

Powered by AerisWeather